Regional Weather Roundup
Issued by NWS

Home | Current Version | Previous Version | Graphics & Text | Print | Product List | Glossary On
Versions: 1 2 3 4 5 6 7 8 9 10 11 12 13 14 15 16 17 18 19 20 21 22 23 24 25 26 27 28 29 30 31 32 33 34 35 36 37 38 39 40 41 42 43 44 45 46 47 48 49 50
000
ASUS43 KMPX 231101
RWRMN
WEATHER ROUNDUP FOR MINNESOTA
NATIONAL WEATHER SERVICE TWIN CITIES/CHANHASSEN MN
600 AM CDT TUE MAY 23 2017


NOTE: "FAIR" INDICATES FEW OR NO CLOUDS BELOW 12,000 FEET WITH NO
SIGNIFICANT WEATHER AND/OR OBSTRUCTIONS TO VISIBILITY. N/A MEANS
CURRENT SKY AND/OR WEATHER CONDITIONS ARE NOT AVAILABLE.

MNZ060>063-068>070-231200-
   Twin Cities Metro

CITY           SKY/WX    TMP DP  RH WIND       PRES   REMARKS
TWIN CITIES    CLOUDY    49  44  83 NW6       29.80S
ST PAUL        CLOUDY    50  48  93 NE5       29.81S
CRYSTAL        CLOUDY    48  42  80 NW7       29.80S
BLAINE         CLOUDY    48  46  93 NW3       29.80S
LAKEVILLE      CLOUDY    48  48 100 CALM      29.80S
EDEN PRAIRIE   CLOUDY    50  43  77 NW8       29.79S
SOUTH ST PAUL  CLOUDY    51  50  96 CALM      29.80S
LAKE ELMO      CLOUDY    50  48  93 E3        29.81S
$$
MNZ001>005-007-008-013>017-022>024-027-028-231200-
   Northwest Minnesota

CITY           SKY/WX    TMP DP  RH WIND       PRES   REMARKS
BEMIDJI        LGT RAIN  46  45  98 N9        29.86R
HALLOCK        CLOUDY    48  45  87 N13       29.99R
ROSEAU         CLOUDY    48  43  81 N13       29.96R
WARROAD        CLOUDY    48  45  87 N14G24    29.96R
CROOKSTON      CLOUDY    46  45  93 N13G18    29.94R
FOSSTON        CLOUDY    45  43  93 N15       29.89R FOG
DETROIT LAKES  DRIZZLE   45  45 100 N6        29.88R
MOORHEAD       CLOUDY    46  45  93 N16       29.91R
PARK RAPIDS    LGT RAIN  47  43  86 N6        29.84R FOG
MAHNOMEN       DRIZZLE   45  45  98 N13       29.88R
$$
MNZ006-009>011-018-025>026-231200-
   North Central Minnesota

CITY           SKY/WX    TMP DP  RH WIND       PRES   REMARKS
BAUDETTE       CLOUDY    46  43  89 N9        29.92R
FLAG ISLAND    CLOUDY    48  41  76 N17G24    29.96R
INTL FALLS     CLOUDY    46  43  89 NE12      29.89R
WASKISH        CLOUDY    46  45  93 NE8G18    29.88S
BIG FORK       CLOUDY    46  45  93 NE3       29.86R FOG
LONGVILLE      CLOUDY    45  45 100 CALM      29.85R
GRAND RAPIDS   CLOUDY    45  43  93 CALM      29.87R
CRANE LAKE     CLOUDY    45  45 100 CALM      29.88R
ORR            FOG       45  43  93 CALM      29.84R VSB 3/4
COOK           FOG       41  39  93 CALM      29.86R VSB 1/4
WALKER         CLOUDY    45  44  98 CALM      29.85R
$$
MNZ012-019>021-037-231200-
   Northeast Minnesota

CITY           SKY/WX    TMP DP  RH WIND       PRES   REMARKS
DULUTH         MOCLDY    46  43  89 N7        29.82R
ELY            FOG       32  32 100 CALM      29.85R VSB 1/4
HIBBING        CLOUDY    40  40 100 N3        29.85R
EVELETH        CLOUDY    39  37  93 CALM      29.86R
DULUTH HARBOR  CLOUDY    46  45  93 NE3       29.84R
TWO HARBORS    CLOUDY    50  43  76 NE3       29.81S
SILVER BAY     CLOUDY    46  43  87 CALM      29.82R
GRAND MARAIS     N/A     47  43  86 CALM      29.84R
G MARAIS ARPRT CLOUDY    43  39  87 N8        29.84S FOG
$$
MNZ029>031-032-039>041-046>048-054>057-064-231200-
   West Central Minnesota

CITY           SKY/WX    TMP DP  RH WIND       PRES   REMARKS
FERGUS FALLS   CLOUDY    46  46 100 N8        29.87R
WHEATON        CLOUDY    46  45  93 NW8       29.90R
MORRIS         CLOUDY    46  46 100 N12       29.85S
ALEXANDRIA     CLOUDY    46  45  96 N8        29.85S
ELBOW LAKE     CLOUDY    46  45  97 NW9       29.87R
WADENA         DRIZZLE   45  45 100 N6        29.84S
GLENWOOD       CLOUDY    46  45  93 N6        29.84S
APPLETON       CLOUDY    48  45  87 N12       29.85S
BENSON         RAIN      46  45  93 N6        29.86S
ORTONVILLE     CLOUDY    46  45  93 N12       29.87R
MADISON        DRIZZLE   50  50 100 N10       29.87R
WILLMAR        DRIZZLE   46  46 100 NW6       29.85S
$$
MNZ033>034-036-042>043-049>051-058-059-231200-
   Central Minnesota

CITY           SKY/WX    TMP DP  RH WIND       PRES   REMARKS
ST CLOUD       CLOUDY    46  45  96 N7        29.83R
SAUK CENTRE    CLOUDY    45  44  97 NW6       29.84S
PAYNESVILLE    RAIN      45  46 100 NW3       29.84R
AITKIN         CLOUDY    45  43  93 N5        29.82S
PINE RIVER     CLOUDY    45  45 100 CALM      29.88R
BRAINERD       CLOUDY    46  45  96 N6        29.84R
STAPLES        CLOUDY    45  43  93 N5        29.84S
LONG PRAIRIE   CLOUDY    45  43  93 NW3       29.84S
LITTLE FALLS   CLOUDY    45  43  93 CALM      29.84R
LITCHFIELD     DRIZZLE   46  46 100 N5        29.83S
BUFFALO        CLOUDY    48  44  87 N6        29.82F
MAPLE LAKE     CLOUDY    48  46  93 NW5       29.83S
HUTCHINSON     LGT RAIN  47  46  95 NW5       29.84S
$$
MNZ037-044-045-052-053-231200-
   East Central Minnesota

CITY           SKY/WX    TMP DP  RH WIND       PRES   REMARKS
PRINCETON      CLOUDY    46  46 100 NW3       29.82S
MORA           CLOUDY    45  45 100 CALM      29.83S
CAMBRIDGE      MOCLDY    46  43  87 CALM      29.80S
RUSH CITY      CLOUDY    43  41  95 CALM      29.82S
MOOSE LAKE     CLOUDY    45  41  87 CALM      29.81R
HINCKLEY       CLOUDY    43  43 100 N3        29.82S
CLOQUET        CLOUDY    45  43  93 N7        29.83R
MCGREGOR       CLOUDY    45  43  93 N6        29.84S
$$
MNZ071>073-080-081-089-090-097-098-231200-
   Southwest Minnesota

CITY           SKY/WX    TMP DP  RH WIND       PRES   REMARKS
MONTEVIDEO     DRIZZLE   46  46 100 VRB6      29.86R
CANBY          LGT RAIN  48  46  93 CALM      29.87S
MARSHALL       LGT RAIN  47  45  93 N10       29.86S
REDWOOD FALLS  CLOUDY    48  44  86 NW6       29.84R
OLIVIA         LGT RAIN  46  45  93 NW7       29.83S
PIPESTONE      CLOUDY    46  43  87 N10       29.86S
WINDOM         CLOUDY    46  45  93 NW7       29.84S
WORTHINGTON    LGT RAIN  46  44  93 NW13      29.86S FOG
JACKSON        CLOUDY    46  45  93 NW8       29.84F
TRACY          CLOUDY    47  46  97 N7        29.86R
SLAYTON        CLOUDY    45  43  95 NW10      29.85S
$$
MNZ065>067-074>077-082>085-091>093-231200-
   South Central Minnesota

CITY           SKY/WX    TMP DP  RH WIND       PRES   REMARKS
MANKATO        CLOUDY    48  45  89 NW9       29.82S
NEW ULM        DRIZZLE   46  45  93 NW10      29.83S
ST JAMES       CLOUDY    46  45  93 NW9       29.84F
FAIRMONT       LGT RAIN  48  45  89 NW10      29.84S
GLENCOE        DRIZZLE   48  47  97 NW6       29.81S
FARIBAULT      CLOUDY    50  46  87 W3        29.81R
OWATONNA       CLOUDY    48  46  93 W5        29.81S
WASECA         CLOUDY    50  45  81 NW9       29.82S
ALBERT LEA     CLOUDY    50  48  93 NW7       29.81S
$$
MNZ078>079-086>088-094>096-231200-
   Southeast Minnesota

CITY           SKY/WX    TMP DP  RH WIND       PRES   REMARKS
ROCHESTER      CLOUDY    49  48  97 NW8       29.80R
RED WING       CLOUDY    52  46  82 NW3       29.79S
STANTON        CLOUDY    50  48  92 CALM      29.79S
DODGE CENTER   CLOUDY    48  45  87 NW6       29.80S
WINONA         CLOUDY    54  52  94 NW3       29.78R
AUSTIN         CLOUDY    48  45  87 NW3       29.80S
PRESTON        CLOUDY    49  46  90 NW7       29.79R
$$
ABBREVIATIONS USED IN REMARKS
   TC - TEMPERATURES IN CELSIUS
  WCI - WIND CHILL INDEX
   HX - HEAT INDEX
  VSB - VISIBILITY
$$




USA.gov is the U.S. government's official web portal to all federal, state and local government web resources and services.